Find EUTELSAT HOT BIRD 13G

NORAD ID: 54225 Int'l Des: 2022-146 Owner: EUTSA Country: F operational
HEOCIRCULARGSOGEO

实时位置

正在加载3D地球...

关于 EUTELSAT HOT BIRD 13G

正在加载描述...

即将过境

Passes for default location (London). Set your location on the main map for personalized predictions.

高度历史

Loading altitude history...

两行轨道根数

1 54225U 22146A 26121.77288838 .00000093 00000-0 00000+0 0 9997
2 54225 0.0376 233.4985 0001933 302.1411 335.2952 1.00272963 7004
Epoch: May 1, 2026 • Age: 69 hours

当前状态

高度 35782.4 km
速度 3.07 km/s
星下点 -0.03°S, 12.99°E
发射日期 Nov 3, 2022
运行时间 3.4 years
类型 other

技术详情

分类 Payload
质量 4476.00 kg
干质量 4200.00 kg
总质量 4476.00 kg
长度 7.00 m
直径 3.00 m
跨度 40.00 m
形状 Box + 2 Pan
制造商 ADST
平台类型 Eurostar NEO
阶段状态 In Orbit
所有者/国家 EUTSA/F

Most Searched